Precipitable_Water
0.51 0.51 0.52 0.51 0.51 0.51 0.51 0.51 0.51 0.51 0.51 0.50 0.48 0.48 0.46 0.46 0.44 0.44 0.45 0.44 0.44 0.43 0.44 0.42 0.43 0.44 0.45 0.46 0.47 0.47 0.45 0.34 0.31 0.28 0.27 0.29 0.34 0.34 0.34 0.36 0.41 0.43 0.40 0.36 0.35 0.32 0.29 0.32 0.31 0.37 0.35 0.33 0.32 0.30 0.36 0.35 0.36 0.31 0.20 0.17 0.14 0.15 0.14 0.17 0.16 0.17 0.19 0.16 0.18 0.20 0.21 0.20 0.18 0.22 0.24 0.26 0.24 0.23 0.23 0.22 0.24 0.27 0.25 0.26 0.27 0.30 0.33 0.36
0.51 0.51 0.51 0.52 0.52 0.51 0.51 0.51 0.51 0.51 0.51 0.51 0.50 0.49 0.48 0.47 0.47 0.46 0.46 0.45 0.45 0.44 0.43 0.44 0.43 0.43 0.46 0.45 0.47 0.48 0.41 0.32 0.26 0.25 0.25 0.37 0.42 0.43 0.42 0.41 0.42 0.41 0.39 0.32 0.29 0.27 0.25 0.26 0.29 0.32 0.31 0.27 0.38 0.28 0.37 0.29 0.38 0.25 0.21 0.19 0.14 0.16 0.17 0.21 0.20 0.20 0.19 0.17 0.20 0.21 0.23 0.22 0.20 0.22 0.24 0.20 0.19 0.22 0.19 0.19 0.21 0.21 0.22 0.25 0.27 0.28 0.30 0.33
0.53 0.52 0.52 0.51 0.52 0.51 0.51 0.51 0.51 0.50 0.51 0.50 0.50 0.50 0.49 0.48 0.48 0.47 0.47 0.46 0.46 0.46 0.45 0.44 0.44 0.44 0.45 0.46 0.47 0.48 0.39 0.27 0.21 0.20 0.28 0.44 0.46 0.45 0.45 0.44 0.41 0.42 0.37 0.31 0.32 0.28 0.25 0.26 0.29 0.29 0.29 0.25 0.31 0.27 0.33 0.29 0.33 0.31 0.23 0.17 0.16 0.20 0.20 0.22 0.23 0.21 0.23 0.22 0.20 0.21 0.22 0.22 0.22 0.23 0.25 0.20 0.19 0.20 0.16 0.16 0.18 0.18 0.18 0.20 0.23 0.26 0.28 0.30
0.53 0.53 0.52 0.51 0.51 0.52 0.51 0.52 0.51 0.51 0.50 0.50 0.49 0.49 0.48 0.48 0.47 0.47 0.47 0.47 0.46 0.46 0.46 0.45 0.45 0.44 0.46 0.45 0.47 0.45 0.33 0.21 0.16 0.24 0.36 0.45 0.49 0.49 0.48 0.47 0.44 0.43 0.40 0.37 0.35 0.31 0.31 0.30 0.30 0.29 0.26 0.24 0.27 0.33 0.27 0.33 0.28 0.31 0.26 0.19 0.18 0.22 0.19 0.22 0.24 0.24 0.25 0.25 0.22 0.22 0.23 0.21 0.22 0.24 0.22 0.20 0.18 0.17 0.17 0.19 0.18 0.17 0.18 0.20 0.22 0.24 0.27 0.28
0.54 0.54 0.53 0.51 0.51 0.52 0.52 0.52 0.52 0.52 0.51 0.51 0.50 0.49 0.49 0.48 0.48 0.47 0.47 0.46 0.46 0.46 0.46 0.45 0.44 0.44 0.45 0.47 0.42 0.41 0.25 0.15 0.19 0.30 0.39 0.46 0.50 0.48 0.50 0.48 0.45 0.42 0.40 0.38 0.37 0.34 0.32 0.29 0.29 0.28 0.25 0.22 0.25 0.27 0.27 0.31 0.34 0.31 0.23 0.25 0.24 0.24 0.20 0.22 0.24 0.25 0.25 0.26 0.24 0.23 0.21 0.19 0.25 0.24 0.22 0.22 0.18 0.15 0.15 0.18 0.20 0.20 0.20 0.21 0.21 0.23 0.25 0.26
0.56 0.54 0.54 0.53 0.53 0.52 0.53 0.53 0.52 0.52 0.51 0.51 0.51 0.51 0.50 0.49 0.49 0.48 0.47 0.47 0.47 0.46 0.46 0.45 0.45 0.43 0.45 0.46 0.42 0.32 0.22 0.11 0.25 0.28 0.43 0.47 0.47 0.49 0.51 0.48 0.44 0.42 0.40 0.36 0.33 0.32 0.29 0.28 0.27 0.23 0.23 0.22 0.22 0.20 0.24 0.29 0.33 0.20 0.24 0.26 0.26 0.26 0.22 0.25 0.25 0.26 0.26 0.24 0.23 0.22 0.24 0.25 0.23 0.21 0.23 0.23 0.20 0.18 0.20 0.21 0.22 0.22 0.22 0.23 0.24 0.23 0.23 0.24
0.59 0.57 0.56 0.56 0.55 0.55 0.55 0.55 0.53 0.53 0.52 0.51 0.51 0.52 0.51 0.51 0.50 0.50 0.50 0.49 0.49 0.49 0.47 0.46 0.45 0.44 0.43 0.44 0.43 0.29 0.22 0.21 0.24 0.31 0.41 0.48 0.50 0.52 0.52 0.48 0.45 0.41 0.39 0.34 0.32 0.30 0.29 0.26 0.26 0.23 0.23 0.22 0.23 0.23 0.25 0.27 0.31 0.25 0.20 0.24 0.23 0.27 0.24 0.26 0.26 0.28 0.28 0.26 0.23 0.27 0.28 0.22 0.22 0.19 0.21 0.21 0.21 0.21 0.21 0.22 0.23 0.23 0.24 0.24 0.22 0.22 0.22 0.22
0.62 0.61 0.59 0.59 0.58 0.58 0.58 0.57 0.56 0.55 0.54 0.54 0.54 0.54 0.53 0.53 0.54 0.53 0.53 0.54 0.53 0.52 0.52 0.50 0.48 0.46 0.47 0.38 0.28 0.24 0.24 0.21 0.28 0.42 0.51 0.50 0.51 0.52 0.49 0.45 0.42 0.41 0.37 0.33 0.32 0.29 0.30 0.26 0.24 0.27 0.24 0.21 0.23 0.23 0.26 0.25 0.28 0.23 0.21 0.24 0.25 0.27 0.26 0.27 0.28 0.28 0.28 0.27 0.28 0.28 0.23 0.20 0.22 0.22 0.22 0.18 0.20 0.21 0.21 0.22 0.22 0.22 0.22 0.22 0.21 0.20 0.21 0.22
0.66 0.64 0.63 0.62 0.62 0.62 0.61 0.60 0.60 0.59 0.59 0.58 0.58 0.57 0.57 0.56 0.55 0.55 0.55 0.55 0.56 0.54 0.54 0.55 0.52 0.49 0.52 0.38 0.28 0.24 0.22 0.31 0.36 0.47 0.53 0.49 0.49 0.51 0.50 0.40 0.45 0.39 0.37 0.36 0.37 0.34 0.31 0.28 0.29 0.28 0.22 0.23 0.28 0.24 0.26 0.24 0.20 0.25 0.23 0.26 0.26 0.25 0.27 0.28 0.27 0.26 0.26 0.26 0.26 0.24 0.21 0.21 0.22 0.25 0.20 0.18 0.17 0.21 0.22 0.20 0.20 0.21 0.20 0.19 0.20 0.20 0.20 0.20
0.72 0.71 0.70 0.69 0.69 0.68 0.67 0.67 0.67 0.66 0.65 0.64 0.63 0.62 0.62 0.61 0.59 0.58 0.58 0.58 0.58 0.58 0.56 0.57 0.58 0.56 0.43 0.36 0.33 0.25 0.31 0.42 0.47 0.55 0.55 0.53 0.53 0.50 0.48 0.46 0.45 0.41 0.37 0.38 0.38 0.36 0.32 0.31 0.30 0.33 0.31 0.27 0.28 0.24 0.27 0.25 0.21 0.27 0.26 0.26 0.25 0.25 0.26 0.27 0.25 0.25 0.26 0.25 0.25 0.22 0.20 0.20 0.24 0.23 0.17 0.20 0.21 0.21 0.21 0.20 0.20 0.20 0.19 0.19 0.19 0.19 0.20 0.20
0.81 0.80 0.79 0.79 0.78 0.78 0.78 0.77 0.76 0.74 0.73 0.72 0.72 0.72 0.71 0.71 0.69 0.68 0.67 0.65 0.64 0.62 0.62 0.62 0.63 0.54 0.40 0.41 0.32 0.29 0.45 0.45 0.52 0.57 0.57 0.56 0.51 0.46 0.44 0.47 0.48 0.43 0.42 0.41 0.39 0.40 0.38 0.37 0.37 0.35 0.32 0.26 0.29 0.27 0.26 0.26 0.29 0.27 0.27 0.27 0.25 0.26 0.27 0.27 0.27 0.25 0.26 0.22 0.24 0.24 0.22 0.23 0.24 0.24 0.20 0.21 0.23 0.23 0.22 0.21 0.21 0.21 0.20 0.19 0.19 0.19 0.20 0.20
0.91 0.90 0.89 0.89 0.88 0.87 0.86 0.86 0.84 0.82 0.81 0.81 0.81 0.80 0.79 0.78 0.78 0.77 0.77 0.77 0.76 0.76 0.74 0.71 0.68 0.65 0.48 0.41 0.37 0.38 0.50 0.51 0.58 0.59 0.58 0.55 0.49 0.49 0.50 0.51 0.50 0.47 0.44 0.39 0.40 0.43 0.42 0.40 0.39 0.34 0.26 0.34 0.25 0.28 0.26 0.31 0.29 0.28 0.28 0.22 0.23 0.24 0.22 0.24 0.23 0.23 0.24 0.22 0.25 0.25 0.23 0.20 0.22 0.20 0.22 0.23 0.25 0.25 0.25 0.24 0.24 0.24 0.23 0.22 0.22 0.21 0.20 0.20
0.93 0.93 0.93 0.94 0.93 0.94 0.93 0.93 0.91 0.88 0.87 0.87 0.85 0.83 0.81 0.80 0.80 0.81 0.82 0.82 0.85 0.85 0.85 0.86 0.79 0.69 0.50 0.38 0.41 0.48 0.53 0.56 0.56 0.56 0.55 0.56 0.53 0.55 0.55 0.55 0.52 0.50 0.46 0.42 0.41 0.44 0.44 0.42 0.40 0.33 0.34 0.31 0.28 0.24 0.30 0.32 0.30 0.30 0.28 0.24 0.22 0.21 0.20 0.21 0.23 0.23 0.23 0.23 0.26 0.25 0.15 0.17 0.18 0.21 0.22 0.24 0.25 0.25 0.24 0.25 0.26 0.27 0.27 0.27 0.27 0.26 0.25 0.25
0.94 0.93 0.93 0.92 0.93 0.94 0.94 0.94 0.93 0.92 0.92 0.91 0.88 0.84 0.82 0.81 0.80 0.80 0.81 0.80 0.84 0.86 0.89 0.88 0.88 0.75 0.60 0.47 0.53 0.60 0.65 0.63 0.60 0.54 0.52 0.55 0.50 0.50 0.53 0.54 0.54 0.52 0.51 0.45 0.46 0.46 0.44 0.45 0.41 0.37 0.39 0.31 0.27 0.37 0.30 0.30 0.31 0.25 0.27 0.27 0.21 0.19 0.17 0.22 0.22 0.24 0.21 0.25 0.26 0.25 0.16 0.16 0.18 0.20 0.22 0.24 0.24 0.24 0.23 0.24 0.26 0.27 0.28 0.29 0.30 0.30 0.30 0.31
0.98 0.98 0.98 0.96 0.96 0.95 0.95 0.95 0.94 0.93 0.94 0.92 0.89 0.85 0.83 0.80 0.81 0.81 0.80 0.77 0.77 0.77 0.77 0.83 0.77 0.63 0.55 0.54 0.64 0.71 0.73 0.71 0.61 0.59 0.61 0.53 0.49 0.46 0.48 0.51 0.50 0.52 0.52 0.51 0.48 0.49 0.47 0.45 0.41 0.36 0.32 0.38 0.36 0.30 0.26 0.25 0.26 0.26 0.21 0.19 0.22 0.19 0.19 0.22 0.25 0.24 0.21 0.23 0.26 0.23 0.17 0.17 0.19 0.21 0.22 0.25 0.25 0.25 0.24 0.24 0.25 0.27 0.28 0.30 0.31 0.31 0.32 0.33
1.02 1.02 1.01 1.01 1.00 0.99 0.99 0.98 0.96 0.96 0.96 0.94 0.89 0.85 0.82 0.82 0.81 0.82 0.82 0.79 0.78 0.79 0.78 0.60 0.58 0.54 0.48 0.42 0.53 0.75 0.65 0.57 0.58 0.66 0.69 0.64 0.57 0.49 0.54 0.51 0.52 0.51 0.50 0.48 0.54 0.51 0.49 0.46 0.38 0.37 0.36 0.36 0.31 0.27 0.25 0.24 0.23 0.25 0.21 0.18 0.18 0.20 0.20 0.21 0.24 0.26 0.26 0.24 0.26 0.23 0.17 0.19 0.19 0.22 0.24 0.26 0.26 0.26 0.25 0.25 0.26 0.27 0.28 0.29 0.30 0.30 0.32 0.32
1.04 1.03 1.03 1.02 1.01 1.01 1.00 0.99 0.98 0.98 0.98 0.97 0.92 0.85 0.84 0.85 0.84 0.83 0.83 0.83 0.79 0.79 0.69 0.52 0.58 0.55 0.38 0.52 0.61 0.50 0.49 0.54 0.64 0.63 0.63 0.64 0.59 0.56 0.54 0.51 0.47 0.48 0.50 0.51 0.50 0.49 0.47 0.41 0.41 0.38 0.38 0.32 0.32 0.29 0.23 0.21 0.21 0.21 0.23 0.20 0.21 0.20 0.21 0.20 0.24 0.26 0.27 0.25 0.22 0.25 0.21 0.21 0.22 0.24 0.26 0.27 0.27 0.26 0.25 0.25 0.27 0.28 0.28 0.29 0.30 0.30 0.31 0.31
1.05 1.04 1.03 1.02 1.01 1.01 1.01 0.99 1.00 1.00 1.00 0.99 0.93 0.85 0.82 0.87 0.87 0.83 0.80 0.81 0.82 0.75 0.71 0.71 0.62 0.50 0.45 0.53 0.43 0.46 0.57 0.56 0.59 0.60 0.62 0.66 0.64 0.61 0.56 0.52 0.53 0.52 0.51 0.48 0.52 0.44 0.47 0.40 0.42 0.33 0.34 0.33 0.31 0.28 0.22 0.18 0.20 0.19 0.20 0.20 0.20 0.22 0.23 0.21 0.21 0.24 0.26 0.25 0.23 0.23 0.22 0.22 0.23 0.25 0.26 0.27 0.28 0.27 0.26 0.27 0.27 0.28 0.28 0.29 0.30 0.30 0.30 0.31
1.09 1.09 1.09 1.06 1.05 1.03 1.02 1.01 1.00 1.00 0.99 0.98 0.94 0.88 0.90 0.89 0.84 0.81 0.69 0.67 0.59 0.51 0.46 0.49 0.49 0.38 0.36 0.45 0.52 0.53 0.58 0.62 0.66 0.63 0.58 0.61 0.63 0.61 0.59 0.58 0.54 0.49 0.44 0.43 0.42 0.43 0.44 0.40 0.39 0.34 0.29 0.31 0.31 0.31 0.27 0.25 0.25 0.23 0.23 0.23 0.22 0.21 0.21 0.22 0.25 0.27 0.26 0.22 0.22 0.22 0.20 0.20 0.22 0.24 0.25 0.27 0.28 0.27 0.27 0.27 0.28 0.27 0.27 0.28 0.28 0.29 0.30 0.32
1.16 1.15 1.16 1.15 1.12 1.11 1.10 1.09 1.08 1.05 1.03 0.94 0.86 0.76 0.73 0.61 0.56 0.53 0.63 0.60 0.53 0.49 0.49 0.49 0.51 0.49 0.50 0.51 0.51 0.60 0.70 0.68 0.55 0.61 0.63 0.66 0.60 0.57 0.55 0.54 0.50 0.50 0.44 0.38 0.41 0.42 0.44 0.33 0.30 0.30 0.32 0.34 0.36 0.36 0.34 0.32 0.32 0.31 0.29 0.28 0.26 0.25 0.25 0.28 0.28 0.29 0.30 0.25 0.22 0.23 0.23 0.22 0.24 0.25 0.27 0.28 0.29 0.28 0.28 0.28 0.27 0.27 0.27 0.28 0.29 0.31 0.33 0.36
1.27 1.25 1.24 1.22 1.22 1.21 1.21 1.20 1.19 1.17 1.11 1.00 0.89 0.73 0.57 0.58 0.49 0.46 0.57 0.62 0.66 0.65 0.59 0.58 0.56 0.52 0.48 0.53 0.55 0.54 0.49 0.51 0.58 0.56 0.60 0.70 0.61 0.54 0.48 0.50 0.45 0.40 0.42 0.43 0.39 0.44 0.41 0.32 0.31 0.35 0.37 0.38 0.37 0.37 0.36 0.35 0.34 0.32 0.30 0.29 0.27 0.28 0.25 0.31 0.31 0.34 0.33 0.28 0.24 0.26 0.24 0.24 0.26 0.27 0.29 0.30 0.29 0.28 0.28 0.29 0.29 0.30 0.31 0.32 0.33 0.34 0.36 0.37
1.32 1.34 1.34 1.33 1.32 1.31 1.31 1.30 1.26 1.25 1.20 1.08 0.95 0.81 0.77 0.74 0.78 0.80 0.69 0.53 0.66 0.72 0.70 0.67 0.67 0.60 0.65 0.63 0.65 0.62 0.58 0.48 0.49 0.54 0.63 0.62 0.54 0.46 0.46 0.45 0.41 0.37 0.42 0.42 0.41 0.37 0.33 0.31 0.35 0.39 0.40 0.39 0.37 0.36 0.36 0.34 0.32 0.32 0.30 0.29 0.28 0.29 0.31 0.31 0.32 0.32 0.32 0.29 0.24 0.27 0.24 0.24 0.26 0.28 0.30 0.30 0.31 0.31 0.33 0.32 0.32 0.33 0.33 0.34 0.35 0.35 0.35 0.35
1.36 1.35 1.36 1.39 1.39 1.38 1.37 1.38 1.32 1.30 1.19 1.08 0.98 0.93 0.90 0.95 0.97 0.95 0.84 0.68 0.58 0.70 0.66 0.66 0.61 0.61 0.61 0.68 0.65 0.68 0.52 0.47 0.44 0.52 0.55 0.58 0.50 0.47 0.45 0.40 0.38 0.39 0.40 0.39 0.33 0.32 0.29 0.32 0.37 0.40 0.38 0.36 0.35 0.36 0.35 0.34 0.33 0.31 0.31 0.29 0.27 0.29 0.27 0.22 0.28 0.30 0.31 0.29 0.25 0.27 0.24 0.24 0.28 0.29 0.29 0.31 0.31 0.31 0.32 0.33 0.33 0.34 0.33 0.33 0.34 0.35 0.34 0.33
1.40 1.39 1.39 1.40 1.41 1.39 1.39 1.37 1.33 1.22 1.15 1.09 1.06 1.02 1.08 1.08 1.03 0.97 0.81 0.61 0.54 0.62 0.66 0.66 0.64 0.62 0.61 0.59 0.66 0.62 0.53 0.51 0.51 0.48 0.64 0.57 0.47 0.51 0.45 0.41 0.38 0.38 0.35 0.37 0.35 0.32 0.30 0.34 0.39 0.38 0.38 0.36 0.34 0.35 0.35 0.34 0.31 0.33 0.32 0.30 0.28 0.28 0.28 0.27 0.25 0.29 0.31 0.31 0.31 0.28 0.24 0.22 0.25 0.24 0.26 0.28 0.31 0.31 0.31 0.32 0.33 0.34 0.35 0.36 0.36 0.35 0.35 0.34
1.42 1.42 1.43 1.43 1.41 1.42 1.39 1.37 1.17 1.11 1.17 1.10 1.06 1.14 1.15 1.10 1.05 1.01 0.80 0.66 0.60 0.58 0.75 0.67 0.69 0.65 0.65 0.74 0.70 0.57 0.57 0.56 0.55 0.57 0.62 0.59 0.51 0.48 0.44 0.48 0.42 0.35 0.36 0.38 0.36 0.34 0.33 0.39 0.41 0.38 0.38 0.38 0.36 0.34 0.35 0.34 0.29 0.30 0.32 0.32 0.31 0.30 0.29 0.29 0.29 0.28 0.25 0.25 0.29 0.27 0.18 0.16 0.22 0.24 0.25 0.28 0.31 0.30 0.32 0.33 0.32 0.33 0.33 0.33 0.32 0.32 0.34 0.34
1.45 1.45 1.44 1.43 1.40 1.38 1.41 1.15 1.11 1.18 1.11 1.02 1.09 1.16 1.16 1.13 1.08 1.00 0.77 0.55 0.42 0.55 0.65 0.52 0.68 0.53 0.69 0.58 0.62 0.60 0.59 0.49 0.60 0.59 0.63 0.62 0.63 0.51 0.48 0.43 0.44 0.35 0.38 0.38 0.36 0.36 0.36 0.41 0.41 0.39 0.38 0.38 0.37 0.35 0.37 0.37 0.31 0.30 0.31 0.38 0.36 0.35 0.33 0.31 0.30 0.29 0.23 0.21 0.26 0.31 0.22 0.15 0.22 0.23 0.26 0.29 0.30 0.30 0.33 0.32 0.31 0.32 0.32 0.32 0.32 0.33 0.33 0.34
1.44 1.44 1.44 1.42 1.41 1.42 1.18 1.01 1.22 1.19 1.00 1.03 1.20 1.21 1.17 1.14 1.11 0.94 0.64 0.46 0.37 0.52 0.48 0.58 0.55 0.53 0.59 0.55 0.54 0.55 0.36 0.40 0.60 0.61 0.58 0.63 0.52 0.60 0.41 0.39 0.42 0.42 0.42 0.42 0.36 0.31 0.39 0.39 0.40 0.40 0.38 0.37 0.35 0.34 0.38 0.39 0.35 0.31 0.40 0.40 0.40 0.38 0.35 0.34 0.32 0.31 0.28 0.31 0.31 0.32 0.29 0.23 0.18 0.23 0.29 0.30 0.30 0.30 0.30 0.29 0.30 0.31 0.31 0.31 0.31 0.33 0.35 0.37
1.40 1.40 1.40 1.41 1.42 1.40 1.24 1.26 1.20 1.07 1.06 1.16 1.22 1.20 1.19 1.12 1.07 0.92 0.60 0.33 0.30 0.50 0.44 0.49 0.52 0.68 0.58 0.57 0.55 0.45 0.44 0.51 0.42 0.53 0.62 0.64 0.61 0.53 0.47 0.42 0.41 0.41 0.43 0.40 0.29 0.38 0.40 0.38 0.39 0.39 0.39 0.38 0.37 0.41 0.43 0.44 0.40 0.39 0.43 0.44 0.41 0.41 0.40 0.39 0.36 0.33 0.33 0.30 0.24 0.29 0.32 0.26 0.21 0.23 0.30 0.30 0.28 0.28 0.28 0.28 0.30 0.31 0.32 0.31 0.32 0.34 0.37 0.38
1.41 1.42 1.43 1.44 1.42 1.41 1.40 1.26 1.17 1.08 1.20 1.24 1.22 1.20 1.16 1.13 0.95 0.67 0.49 0.31 0.49 0.49 0.61 0.46 0.66 0.57 0.55 0.57 0.52 0.52 0.49 0.52 0.43 0.53 0.63 0.66 0.66 0.58 0.48 0.50 0.48 0.47 0.47 0.44 0.37 0.40 0.44 0.44 0.44 0.44 0.42 0.40 0.45 0.46 0.47 0.47 0.42 0.45 0.47 0.46 0.44 0.43 0.42 0.40 0.38 0.35 0.34 0.30 0.22 0.27 0.32 0.27 0.20 0.23 0.27 0.29 0.27 0.26 0.27 0.31 0.34 0.37 0.33 0.34 0.34 0.35 0.37 0.38
1.35 1.37 1.41 1.42 1.38 1.31 1.29 1.33 1.19 1.24 1.24 1.25 1.20 1.18 1.16 1.03 0.76 0.50 0.40 0.28 0.50 0.39 0.53 0.52 0.52 0.48 0.54 0.49 0.50 0.54 0.50 0.52 0.55 0.56 0.60 0.56 0.59 0.62 0.57 0.59 0.51 0.47 0.45 0.46 0.43 0.44 0.47 0.51 0.49 0.44 0.42 0.44 0.46 0.48 0.49 0.48 0.48 0.51 0.48 0.44 0.42 0.41 0.39 0.39 0.38 0.36 0.33 0.25 0.24 0.31 0.33 0.30 0.21 0.21 0.24 0.25 0.25 0.27 0.29 0.31 0.35 0.36 0.35 0.34 0.35 0.36 0.37 0.38
1.29 1.30 1.34 1.39 1.22 1.26 1.24 1.08 1.19 1.28 1.26 1.20 1.20 1.14 1.03 0.81 0.52 0.41 0.29 0.40 0.55 0.53 0.59 0.54 0.51 0.59 0.52 0.49 0.47 0.54 0.52 0.52 0.52 0.55 0.51 0.57 0.52 0.54 0.52 0.48 0.52 0.45 0.44 0.43 0.41 0.44 0.45 0.45 0.44 0.46 0.51 0.50 0.50 0.47 0.51 0.52 0.51 0.49 0.44 0.42 0.40 0.38 0.38 0.36 0.35 0.35 0.28 0.23 0.27 0.32 0.32 0.31 0.20 0.19 0.25 0.28 0.30 0.30 0.31 0.32 0.33 0.34 0.34 0.34 0.35 0.37 0.38 0.38
1.20 1.22 1.27 1.28 1.28 1.31 1.07 1.00 1.20 1.26 1.23 1.23 1.16 0.95 0.79 0.48 0.55 0.35 0.33 0.62 0.40 0.51 0.49 0.47 0.53 0.53 0.51 0.52 0.49 0.49 0.47 0.49 0.50 0.50 0.45 0.46 0.45 0.44 0.45 0.39 0.41 0.34 0.33 0.36 0.36 0.44 0.40 0.42 0.48 0.49 0.54 0.50 0.47 0.45 0.45 0.48 0.48 0.45 0.43 0.41 0.35 0.31 0.31 0.27 0.28 0.25 0.25 0.23 0.29 0.33 0.33 0.27 0.21 0.24 0.29 0.31 0.31 0.32 0.34 0.35 0.34 0.34 0.36 0.39 0.41 0.41 0.41 0.40
1.17 1.17 1.20 1.25 1.26 1.17 1.19 1.24 1.26 1.22 1.22 1.20 1.05 0.91 0.63 0.46 0.30 0.41 0.44 0.49 0.41 0.54 0.49 0.55 0.52 0.52 0.50 0.47 0.45 0.47 0.49 0.41 0.48 0.46 0.46 0.45 0.42 0.42 0.45 0.43 0.43 0.40 0.31 0.36 0.36 0.36 0.37 0.44 0.45 0.46 0.49 0.51 0.47 0.37 0.37 0.39 0.43 0.41 0.38 0.37 0.32 0.28 0.26 0.23 0.25 0.27 0.25 0.27 0.32 0.32 0.34 0.25 0.24 0.27 0.31 0.32 0.34 0.35 0.36 0.35 0.36 0.37 0.39 0.40 0.40 0.39 0.39 0.40
1.13 1.14 1.10 1.16 1.21 1.22 1.23 1.26 1.26 1.25 1.16 1.09 0.90 0.73 0.60 0.38 0.33 0.50 0.45 0.48 0.47 0.58 0.55 0.51 0.50 0.49 0.47 0.42 0.45 0.48 0.41 0.47 0.46 0.45 0.45 0.42 0.42 0.38 0.42 0.45 0.45 0.41 0.40 0.37 0.32 0.33 0.28 0.28 0.36 0.43 0.39 0.46 0.42 0.41 0.40 0.37 0.37 0.36 0.40 0.36 0.32 0.31 0.27 0.24 0.25 0.22 0.24 0.28 0.31 0.33 0.28 0.22 0.20 0.22 0.32 0.33 0.35 0.35 0.37 0.39 0.40 0.41 0.41 0.40 0.39 0.41 0.43 0.42
1.08 1.08 1.10 1.12 1.14 1.21 1.25 1.26 1.25 1.24 1.13 0.96 0.78 0.62 0.42 0.35 0.43 0.40 0.43 0.48 0.51 0.53 0.49 0.55 0.48 0.46 0.44 0.45 0.46 0.47 0.45 0.41 0.48 0.43 0.41 0.39 0.35 0.36 0.36 0.37 0.42 0.42 0.40 0.33 0.35 0.34 0.31 0.31 0.38 0.45 0.43 0.43 0.39 0.44 0.43 0.38 0.37 0.39 0.39 0.39 0.34 0.30 0.35 0.29 0.31 0.31 0.29 0.29 0.28 0.28 0.26 0.28 0.26 0.32 0.34 0.35 0.36 0.37 0.39 0.38 0.37 0.36 0.37 0.39 0.42 0.43 0.44 0.44
1.01 0.97 1.05 0.99 1.01 1.09 1.19 1.23 1.22 1.18 1.03 0.84 0.64 0.50 0.40 0.42 0.39 0.48 0.45 0.55 0.55 0.49 0.50 0.52 0.49 0.42 0.40 0.40 0.45 0.42 0.49 0.40 0.43 0.41 0.39 0.39 0.39 0.36 0.38 0.39 0.37 0.39 0.35 0.31 0.35 0.30 0.34 0.28 0.34 0.38 0.42 0.41 0.41 0.41 0.39 0.40 0.27 0.34 0.36 0.30 0.33 0.41 0.37 0.31 0.32 0.34 0.32 0.29 0.23 0.27 0.27 0.28 0.32 0.32 0.32 0.34 0.34 0.34 0.36 0.36 0.36 0.39 0.42 0.44 0.45 0.45 0.44 0.44
0.91 0.95 0.86 0.92 0.95 1.06 1.13 1.16 1.16 1.07 0.96 0.75 0.57 0.43 0.47 0.51 0.56 0.53 0.58 0.54 0.55 0.56 0.50 0.38 0.39 0.38 0.36 0.34 0.37 0.40 0.43 0.45 0.42 0.39 0.34 0.40 0.36 0.38 0.36 0.38 0.42 0.41 0.40 0.38 0.35 0.40 0.29 0.27 0.34 0.34 0.34 0.40 0.42 0.41 0.41 0.41 0.42 0.38 0.31 0.34 0.41 0.44 0.40 0.34 0.26 0.26 0.24 0.21 0.23 0.26 0.22 0.23 0.24 0.19 0.28 0.29 0.29 0.32 0.35 0.36 0.38 0.42 0.43 0.43 0.44 0.44 0.44 0.45
0.84 0.82 0.81 0.80 0.88 1.01 1.08 1.11 1.07 0.97 0.82 0.65 0.49 0.46 0.55 0.46 0.57 0.54 0.59 0.56 0.54 0.54 0.45 0.40 0.40 0.43 0.35 0.34 0.32 0.36 0.41 0.35 0.36 0.38 0.33 0.38 0.31 0.42 0.36 0.36 0.41 0.40 0.42 0.45 0.37 0.36 0.38 0.27 0.29 0.33 0.34 0.38 0.41 0.38 0.36 0.41 0.44 0.38 0.36 0.44 0.32 0.28 0.28 0.32 0.28 0.20 0.19 0.19 0.20 0.22 0.24 0.23 0.24 0.22 0.25 0.24 0.26 0.29 0.35 0.39 0.42 0.41 0.42 0.42 0.44 0.45 0.47 0.48
0.79 0.75 0.63 0.75 0.86 0.93 0.99 1.04 0.97 0.82 0.66 0.52 0.45 0.42 0.51 0.52 0.58 0.57 0.59 0.58 0.57 0.51 0.43 0.43 0.38 0.43 0.40 0.35 0.36 0.40 0.40 0.33 0.39 0.36 0.33 0.37 0.30 0.41 0.38 0.41 0.39 0.44 0.44 0.43 0.37 0.37 0.40 0.29 0.29 0.34 0.33 0.38 0.40 0.37 0.27 0.31 0.40 0.42 0.42 0.37 0.39 0.33 0.28 0.25 0.25 0.26 0.25 0.20 0.22 0.22 0.25 0.22 0.27 0.26 0.27 0.26 0.27 0.35 0.38 0.41 0.41 0.43 0.44 0.45 0.46 0.47 0.48 0.49
0.66 0.60 0.55 0.84 0.94 0.90 0.94 0.94 0.78 0.70 0.56 0.42 0.42 0.44 0.52 0.48 0.53 0.58 0.60 0.57 0.52 0.48 0.45 0.42 0.46 0.40 0.41 0.39 0.40 0.35 0.41 0.40 0.38 0.38 0.37 0.38 0.35 0.44 0.39 0.46 0.40 0.43 0.45 0.46 0.41 0.44 0.35 0.41 0.24 0.29 0.35 0.36 0.29 0.33 0.29 0.30 0.28 0.30 0.30 0.29 0.31 0.31 0.36 0.33 0.32 0.29 0.25 0.23 0.23 0.23 0.22 0.25 0.29 0.33 0.31 0.32 0.37 0.40 0.41 0.41 0.44 0.45 0.47 0.49 0.50 0.50 0.50 0.50
0.58 0.47 0.50 0.79 0.90 0.90 0.87 0.76 0.59 0.49 0.45 0.49 0.48 0.43 0.47 0.45 0.49 0.52 0.57 0.59 0.54 0.59 0.47 0.44 0.43 0.38 0.40 0.38 0.37 0.41 0.38 0.40 0.40 0.37 0.38 0.39 0.38 0.32 0.44 0.42 0.43 0.37 0.41 0.39 0.35 0.37 0.33 0.34 0.28 0.32 0.31 0.29 0.28 0.34 0.32 0.30 0.32 0.31 0.31 0.30 0.31 0.30 0.29 0.26 0.24 0.33 0.31 0.28 0.24 0.24 0.22 0.30 0.37 0.40 0.38 0.39 0.45 0.46 0.45 0.44 0.44 0.45 0.46 0.47 0.49 0.50 0.50 0.50
0.38 0.27 0.36 0.73 0.84 0.81 0.64 0.46 0.46 0.51 0.46 0.39 0.35 0.42 0.41 0.50 0.44 0.44 0.49 0.54 0.54 0.48 0.56 0.49 0.48 0.44 0.42 0.40 0.40 0.42 0.42 0.41 0.41 0.40 0.42 0.35 0.40 0.38 0.43 0.48 0.46 0.46 0.41 0.35 0.36 0.43 0.39 0.36 0.31 0.25 0.25 0.23 0.25 0.31 0.39 0.41 0.41 0.39 0.39 0.36 0.39 0.37 0.35 0.30 0.24 0.28 0.34 0.33 0.35 0.31 0.28 0.29 0.42 0.40 0.40 0.44 0.46 0.44 0.44 0.45 0.43 0.44 0.44 0.45 0.46 0.47 0.48 0.48
0.28 0.24 0.59 0.67 0.79 0.67 0.50 0.36 0.40 0.39 0.38 0.39 0.45 0.44 0.46 0.44 0.40 0.43 0.40 0.47 0.43 0.49 0.44 0.41 0.40 0.39 0.42 0.39 0.40 0.40 0.43 0.38 0.39 0.36 0.38 0.39 0.39 0.41 0.44 0.44 0.45 0.43 0.42 0.38 0.40 0.42 0.43 0.30 0.26 0.27 0.32 0.36 0.39 0.40 0.43 0.46 0.43 0.40 0.43 0.44 0.43 0.35 0.36 0.34 0.32 0.34 0.31 0.31 0.29 0.27 0.23 0.28 0.39 0.43 0.42 0.45 0.44 0.44 0.45 0.45 0.43 0.42 0.42 0.42 0.43 0.44 0.45 0.45
0.27 0.25 0.37 0.61 0.73 0.66 0.40 0.24 0.24 0.30 0.32 0.37 0.37 0.36 0.43 0.41 0.38 0.35 0.35 0.40 0.39 0.39 0.36 0.38 0.39 0.42 0.36 0.42 0.39 0.34 0.39 0.29 0.37 0.31 0.31 0.35 0.34 0.45 0.46 0.47 0.49 0.44 0.42 0.42 0.37 0.50 0.33 0.37 0.34 0.28 0.28 0.30 0.33 0.36 0.35 0.40 0.39 0.36 0.34 0.36 0.36 0.36 0.36 0.36 0.35 0.35 0.28 0.28 0.28 0.24 0.19 0.24 0.38 0.45 0.48 0.47 0.47 0.46 0.44 0.44 0.42 0.40 0.41 0.41 0.40 0.40 0.40 0.40
0.20 0.24 0.29 0.43 0.54 0.54 0.31 0.30 0.26 0.26 0.29 0.28 0.29 0.28 0.29 0.34 0.37 0.33 0.35 0.34 0.42 0.40 0.39 0.37 0.38 0.40 0.38 0.42 0.38 0.40 0.41 0.36 0.32 0.39 0.38 0.41 0.42 0.51 0.51 0.49 0.51 0.46 0.51 0.54 0.52 0.51 0.38 0.37 0.34 0.24 0.20 0.17 0.15 0.14 0.15 0.19 0.25 0.33 0.38 0.36 0.37 0.35 0.34 0.32 0.25 0.27 0.23 0.27 0.27 0.25 0.24 0.30 0.38 0.43 0.43 0.43 0.42 0.41 0.43 0.44 0.44 0.43 0.42 0.42 0.41 0.40 0.38 0.38
0.10 0.05 0.14 0.24 0.34 0.42 0.37 0.41 0.37 0.26 0.24 0.24 0.25 0.26 0.27 0.25 0.29 0.36 0.35 0.34 0.37 0.38 0.36 0.35 0.39 0.39 0.36 0.36 0.34 0.33 0.32 0.38 0.35 0.33 0.35 0.35 0.39 0.43 0.42 0.45 0.46 0.48 0.49 0.51 0.50 0.45 0.38 0.38 0.33 0.29 0.25 0.21 0.22 0.25 0.33 0.37 0.36 0.31 0.34 0.36 0.35 0.38 0.38 0.36 0.33 0.29 0.23 0.26 0.26 0.28 0.29 0.29 0.31 0.33 0.35 0.38 0.38 0.37 0.38 0.40 0.40 0.41 0.41 0.40 0.40 0.39 0.39 0.37
0.20 0.09 0.11 0.09 0.19 0.28 0.27 0.34 0.31 0.31 0.25 0.28 0.20 0.21 0.17 0.19 0.22 0.28 0.36 0.26 0.34 0.33 0.35 0.34 0.33 0.30 0.30 0.29 0.27 0.27 0.30 0.26 0.30 0.29 0.27 0.26 0.30 0.35 0.38 0.37 0.38 0.39 0.43 0.43 0.44 0.40 0.35 0.29 0.29 0.29 0.30 0.31 0.33 0.32 0.35 0.35 0.30 0.31 0.30 0.28 0.30 0.30 0.30 0.29 0.25 0.21 0.28 0.26 0.20 0.26 0.28 0.26 0.28 0.31 0.33 0.34 0.34 0.34 0.34 0.35 0.35 0.35 0.36 0.35 0.35 0.34 0.34 0.33
0.07 0.11 0.17 0.22 0.13 0.09 0.16 0.21 0.30 0.27 0.30 0.31 0.26 0.28 0.20 0.20 0.22 0.20 0.29 0.32 0.34 0.36 0.25 0.30 0.27 0.28 0.27 0.24 0.26 0.22 0.22 0.21 0.25 0.23 0.28 0.30 0.29 0.33 0.33 0.38 0.36 0.38 0.39 0.38 0.40 0.35 0.30 0.24 0.27 0.28 0.26 0.29 0.28 0.27 0.27 0.26 0.25 0.24 0.24 0.24 0.23 0.24 0.24 0.21 0.21 0.24 0.25 0.21 0.17 0.20 0.23 0.22 0.24 0.27 0.31 0.32 0.33 0.33 0.33 0.33 0.33 0.33 0.32 0.31 0.30 0.30 0.29 0.29
0.17 0.17 0.18 0.24 0.15 0.15 0.18 0.20 0.22 0.23 0.22 0.25 0.26 0.25 0.18 0.18 0.17 0.20 0.23 0.25 0.28 0.27 0.30 0.20 0.23 0.24 0.27 0.29 0.27 0.23 0.24 0.19 0.20 0.27 0.28 0.28 0.27 0.27 0.25 0.27 0.32 0.35 0.33 0.31 0.31 0.32 0.27 0.22 0.22 0.23 0.22 0.22 0.20 0.19 0.20 0.20 0.19 0.20 0.20 0.21 0.22 0.21 0.20 0.20 0.21 0.23 0.23 0.22 0.25 0.26 0.26 0.25 0.28 0.31 0.32 0.32 0.34 0.34 0.33 0.33 0.32 0.30 0.28 0.28 0.27 0.27 0.26 0.25
0.12 0.13 0.11 0.21 0.19 0.17 0.18 0.19 0.19 0.18 0.16 0.21 0.18 0.18 0.18 0.18 0.16 0.19 0.26 0.23 0.19 0.19 0.28 0.21 0.21 0.23 0.24 0.24 0.25 0.20 0.21 0.22 0.21 0.17 0.21 0.21 0.19 0.20 0.19 0.21 0.21 0.27 0.27 0.23 0.24 0.29 0.23 0.17 0.23 0.20 0.18 0.17 0.19 0.19 0.20 0.20 0.20 0.18 0.19 0.20 0.19 0.19 0.18 0.19 0.19 0.19 0.21 0.23 0.26 0.27 0.26 0.24 0.28 0.30 0.27 0.26 0.26 0.25 0.26 0.25 0.24 0.25 0.26 0.25 0.24 0.23 0.22 0.21
0.19 0.24 0.23 0.14 0.10 0.14 0.15 0.16 0.15 0.15 0.14 0.16 0.16 0.17 0.19 0.20 0.20 0.23 0.23 0.31 0.26 0.22 0.24 0.21 0.22 0.20 0.22 0.22 0.22 0.22 0.26 0.25 0.26 0.26 0.27 0.26 0.20 0.27 0.23 0.23 0.26 0.20 0.23 0.23 0.24 0.24 0.24 0.19 0.23 0.20 0.16 0.14 0.18 0.19 0.20 0.21 0.20 0.19 0.18 0.17 0.16 0.16 0.17 0.19 0.18 0.18 0.17 0.17 0.18 0.19 0.17 0.17 0.22 0.25 0.26 0.24 0.23 0.23 0.22 0.21 0.22 0.22 0.24 0.24 0.23 0.20 0.20 0.20
0.24 0.25 0.25 0.18 0.09 0.15 0.13 0.16 0.15 0.13 0.09 0.14 0.16 0.18 0.18 0.19 0.22 0.24 0.19 0.28 0.28 0.28 0.26 0.24 0.25 0.24 0.23 0.24 0.23 0.26 0.30 0.31 0.31 0.31 0.31 0.34 0.35 0.35 0.35 0.34 0.33 0.28 0.25 0.24 0.27 0.23 0.23 0.21 0.19 0.18 0.16 0.15 0.17 0.18 0.18 0.18 0.17 0.14 0.13 0.13 0.14 0.14 0.13 0.12 0.13 0.14 0.15 0.16 0.14 0.13 0.13 0.19 0.22 0.23 0.22 0.22 0.22 0.22 0.23 0.23 0.22 0.23 0.24 0.23 0.20 0.18 0.18 0.18
Wind_Speed
10 10 10 10 10 11 11 11 11 11 11 11 11 11 11 11 11 11 11 11 12 12 12 12 12 13 13 13 13 13 14 13 14 13 12 12 12 12 12 12 12 12 12 12 12 12 12 13 13 13 13 13 14 14 14 14 14 14 14 14 16 15 16 15 15 16 16 17 18 18 17 16 18 19 18 17 16 18 18 17 17 18 18 18 19 18 18 17
12 12 12 12 12 12 12 12 13 13 13 13 13 13 13 13 13 13 13 13 13 13 14 14 14 14 14 14 14 14 15 15 15 14 13 13 13 13 13 13 13 13 13 13 14 13 14 15 15 14 14 14 15 15 15 15 15 15 15 16 17 16 17 17 17 17 17 18 18 19 19 18 19 19 17 17 17 18 18 18 17 19 20 19 19 18 17 17
14 14 14 14 14 14 14 14 14 14 14 15 15 15 15 15 15 15 15 15 15 15 15 16 16 16 16 16 15 15 15 16 16 15 13 13 14 14 14 13 14 14 14 15 15 15 15 15 15 15 15 16 16 16 16 16 16 16 16 17 18 18 18 18 19 19 19 19 19 20 20 19 20 19 17 17 18 18 18 19 18 19 20 19 18 17 17 17
16 16 16 16 16 16 16 16 16 16 16 16 16 16 17 17 17 17 17 17 17 17 17 17 17 17 17 17 17 16 16 17 16 15 14 15 14 14 14 14 14 14 15 15 15 16 15 15 15 16 16 17 17 17 17 18 18 17 17 18 18 17 17 19 20 21 21 20 19 20 20 20 20 18 17 16 18 18 19 20 20 20 20 19 19 18 18 18
18 18 18 18 17 17 17 18 18 18 18 18 18 18 18 18 18 19 19 19 19 19 19 19 19 19 19 19 18 17 17 16 15 15 15 16 16 16 15 15 15 15 15 16 16 16 16 16 17 17 17 18 18 17 18 19 18 18 18 19 19 17 18 20 20 20 20 19 20 20 20 20 19 19 18 17 18 19 20 22 22 22 21 21 21 20 19 19
19 19 19 19 19 19 19 19 19 19 19 19 20 20 20 20 20 20 20 20 20 20 20 20 20 20 20 20 18 18 16 16 17 17 18 19 18 17 16 16 16 16 16 17 17 17 17 17 17 18 17 18 18 18 19 19 18 19 20 20 21 19 19 20 20 20 20 20 20 20 21 21 20 20 20 18 20 23 25 24 24 24 23 23 22 21 21 21
21 20 20 20 20 20 20 20 21 21 21 21 21 21 21 21 21 21 21 22 22 22 21 21 21 21 21 20 19 18 16 19 21 20 20 19 18 17 17 17 17 17 17 17 17 18 18 18 18 18 18 19 19 19 20 20 19 20 20 20 21 21 21 22 21 21 22 22 23 22 23 23 21 21 21 20 22 25 27 26 25 25 24 23 23 22 22 22
21 21 21 21 21 21 21 22 22 22 22 22 22 22 23 23 23 23 23 23 23 23 23 22 22 22 21 20 19 18 18 21 22 20 19 18 18 17 17 18 18 18 18 18 18 18 19 19 20 19 19 20 20 19 20 20 20 21 21 21 20 21 22 23 22 23 23 24 25 24 24 26 24 22 22 24 25 25 27 26 25 24 23 23 23 23 23 23
22 22 22 22 22 22 22 22 23 23 23 23 23 24 24 24 24 24 24 24 24 24 23 23 23 22 21 20 19 18 19 22 21 19 19 18 19 19 19 19 19 19 19 20 20 19 20 21 21 21 21 21 20 20 20 21 22 22 22 22 22 23 23 24 24 24 24 25 23 23 25 27 25 22 22 26 26 24 25 25 24 23 24 23 23 24 24 24
22 22 22 22 22 22 23 23 23 23 23 24 24 24 24 24 24 24 24 24 24 24 24 23 23 22 21 20 19 17 19 20 19 19 20 20 20 20 21 21 21 21 20 21 21 21 22 22 22 22 22 22 21 21 20 21 22 22 23 24 24 25 25 24 24 25 25 25 24 23 26 26 24 21 22 24 23 21 23 25 25 24 25 24 24 24 24 24
22 23 23 23 23 23 23 23 23 23 24 24 24 24 25 25 25 25 25 25 25 25 24 24 23 23 22 21 20 19 20 21 21 21 21 22 22 22 22 22 22 22 21 22 22 22 22 22 21 21 22 22 21 21 22 23 23 23 23 25 25 25 26 24 24 26 25 25 24 24 27 26 23 21 24 26 23 23 25 27 27 26 26 26 25 25 25 25
23 23 23 23 23 23 23 23 24 24 24 25 25 25 26 26 26 26 26 26 26 26 25 25 24 23 23 22 22 22 22 22 22 23 23 23 23 23 23 23 23 23 22 22 23 23 22 22 21 21 22 22 21 22 23 23 23 24 23 25 26 25 26 24 24 25 23 24 23 23 27 26 23 23 27 28 26 25 26 27 28 27 27 27 27 27 26 27
23 23 23 23 23 23 23 24 24 24 25 25 26 26 27 27 27 27 27 27 27 27 26 26 25 25 24 23 23 24 24 23 23 24 24 24 24 24 24 24 23 23 23 23 23 23 23 23 22 23 23 22 23 23 23 22 23 25 24 25 26 26 25 23 23 23 22 24 23 23 27 27 24 26 28 28 26 26 26 27 28 28 27 28 28 28 29 29
24 24 23 23 23 23 24 24 24 25 25 26 26 27 27 28 28 28 28 28 28 27 27 26 25 25 25 25 24 24 24 24 24 25 26 25 24 24 24 23 23 23 23 23 23 23 23 23 22 23 24 24 24 24 24 24 24 25 25 25 26 26 26 23 22 21 23 24 23 24 29 29 27 27 28 27 26 26 27 28 28 28 28 29 29 30 31 31
24 24 24 24 24 24 25 25 25 26 26 27 27 27 28 28 28 27 27 27 26 26 26 25 25 25 25 26 25 24 23 24 24 25 25 25 24 24 24 23 23 23 23 23 23 23 23 23 23 24 25 25 24 24 24 25 25 24 26 27 26 26 27 26 23 22 24 26 24 26 29 30 28 28 28 26 25 26 28 29 29 30 31 31 31 31 31 32
25 25 25 25 25 25 26 26 26 27 27 27 28 28 28 27 27 26 26 25 25 25 25 25 25 25 25 25 24 23 23 24 24 24 24 24 24 23 23 22 22 23 23 23 23 23 23 23 24 25 25 24 23 23 24 26 26 25 26 28 27 27 28 27 25 23 24 26 26 28 30 31 29 28 28 26 26 28 30 31 31 31 32 31 31 31 31 32
26 26 26 26 26 26 26 27 27 27 28 28 29 29 28 27 26 26 25 25 24 24 25 25 25 25 26 26 24 24 24 24 23 23 23 23 23 23 22 22 23 22 22 23 23 23 24 24 25 25 24 23 22 22 25 27 27 26 26 28 28 28 28 28 28 25 23 25 28 30 32 33 31 30 31 31 31 30 31 33 32 32 32 32 31 31 31 30
26 26 26 27 27 27 27 27 28 28 29 29 29 29 28 27 26 26 25 25 25 25 25 26 24 25 27 26 25 24 23 23 23 23 23 23 23 23 23 23 23 23 22 23 24 24 25 25 25 26 25 24 23 23 26 28 29 29 28 29 30 29 29 29 29 26 26 28 29 30 33 35 34 32 33 33 32 31 31 32 33 32 32 32 31 31 30 29
27 27 27 27 27 27 28 28 28 29 29 29 29 28 27 27 27 27 26 26 26 25 26 26 25 26 26 26 26 26 25 25 25 25 24 24 23 23 23 24 23 23 23 24 26 25 25 26 26 26 26 26 25 25 28 30 29 29 29 29 30 31 30 29 29 28 28 31 32 32 36 36 34 33 32 33 33 32 32 32 32 32 32 31 30 29 28 28
28 28 27 27 28 28 28 28 29 29 29 29 28 27 27 27 27 28 28 28 28 28 29 29 29 29 30 29 28 28 28 27 26 26 25 24 24 23 24 24 24 25 25 25 26 26 26 27 28 27 27 27 27 27 29 29 27 28 29 30 31 32 32 30 30 29 27 31 33 32 36 36 34 34 32 33 32 31 32 31 30 30 30 29 28 28 28 27
29 29 28 28 28 28 29 29 29 29 29 28 27 26 27 27 27 29 30 30 31 31 32 32 32 33 32 31 30 29 29 28 27 26 25 25 24 24 25 25 25 26 27 25 26 26 26 28 29 28 27 26 26 26 27 28 28 29 29 31 31 31 34 32 31 30 27 29 32 31 36 37 34 34 32 32 31 30 29 27 26 28 28 28 27 27 26 25
30 30 30 29 29 29 29 30 29 29 29 27 26 26 27 28 28 29 30 31 32 32 33 33 33 35 34 32 32 31 29 29 28 26 26 25 24 25 26 25 26 27 27 25 25 26 28 30 30 29 26 24 25 24 25 27 28 29 29 30 32 31 33 33 30 29 27 28 32 33 36 36 34 35 34 31 28 27 27 26 26 28 28 28 27 24 23 22
31 31 31 30 30 30 30 30 30 29 28 27 27 27 27 28 29 29 30 31 33 32 32 33 33 35 34 33 33 31 31 30 28 28 27 25 25 26 26 26 27 27 27 27 27 28 29 30 30 29 26 25 27 25 25 28 28 28 29 30 32 30 31 32 29 28 27 29 31 33 36 36 34 32 29 26 24 25 28 28 29 29 28 28 25 21 20 20
32 32 31 31 30 30 30 30 30 28 28 27 27 27 28 28 28 29 30 32 33 32 32 32 32 33 33 32 32 30 30 30 28 28 27 26 26 26 26 26 26 27 28 28 29 30 31 30 28 27 26 26 28 28 27 29 29 28 28 29 31 30 30 31 30 29 29 29 29 31 35 33 27 24 22 23 25 25 27 28 28 26 23 22 20 18 17 16
33 32 31 31 30 30 30 30 29 28 27 27 27 28 27 28 29 29 30 31 33 33 31 30 30 30 30 29 28 28 28 28 28 27 26 26 25 25 26 26 26 28 28 27 29 31 32 29 26 24 25 25 26 28 26 27 29 29 28 28 31 31 30 31 30 29 29 28 27 27 29 28 23 23 26 28 27 26 25 26 25 21 17 16 15 15 14 13
33 32 32 31 31 30 30 29 28 28 28 28 28 28 27 28 28 28 28 30 32 32 28 27 26 25 25 24 24 24 24 24 24 24 23 23 24 24 24 25 26 27 27 26 27 29 29 27 24 24 24 23 24 27 26 25 28 30 28 27 29 30 30 30 29 28 27 28 28 26 25 28 29 28 31 29 26 27 26 23 20 18 17 16 14 14 14 14
32 32 32 31 31 30 29 29 28 28 28 28 28 28 28 28 27 28 27 27 29 27 24 23 22 21 21 20 20 20 20 21 21 21 22 22 23 23 25 26 25 26 26 25 27 28 27 25 24 24 24 24 25 27 25 23 25 29 28 26 26 28 28 28 28 28 28 29 30 27 24 29 33 31 29 26 24 26 24 19 18 17 16 15 14 14 14 15
32 32 32 32 31 30 30 29 29 29 29 28 28 28 27 27 27 26 24 24 25 23 21 21 20 20 20 20 20 20 22 22 22 23 24 24 25 24 25 26 25 25 25 25 29 29 26 26 26 25 24 25 26 26 24 23 25 28 27 25 25 26 26 26 26 27 28 29 29 26 22 26 33 31 27 26 24 23 20 17 18 18 18 18 17 15 14 16
31 32 32 32 31 31 31 30 30 30 29 28 27 27 27 27 26 24 23 24 25 24 23 23 22 23 23 22 23 23 23 24 23 24 24 23 24 23 24 25 23 24 25 26 29 28 26 26 26 25 25 26 26 25 24 24 26 27 24 24 25 25 25 24 25 26 26 28 27 25 23 24 31 31 25 23 22 19 18 18 20 22 22 21 19 18 17 17
32 32 33 33 32 32 32 31 31 30 29 28 27 27 27 26 25 24 25 26 25 24 24 24 24 25 24 23 24 24 24 24 23 23 22 22 24 23 23 24 22 24 26 27 29 28 26 26 26 26 26 25 24 24 25 24 25 25 24 25 25 25 26 25 26 25 24 27 27 26 24 23 27 27 21 21 21 19 20 23 25 24 22 21 20 20 21 21
30 31 31 32 32 32 31 30 29 28 28 28 27 27 27 26 25 24 27 27 26 25 25 24 25 24 23 23 24 23 23 24 23 22 23 23 23 23 23 24 23 24 26 28 29 28 26 26 27 27 26 24 23 24 26 25 24 24 24 25 25 25 25 24 24 23 23 26 26 24 23 23 26 26 22 24 24 23 25 27 26 23 23 24 23 24 25 25
29 29 29 30 30 30 29 28 27 27 27 27 27 26 26 26 27 28 28 26 24 23 22 22 22 22 22 23 24 24 24 24 24 24 24 24 24 25 25 25 24 25 27 27 28 28 28 29 29 28 28 26 25 26 27 26 25 24 24 24 24 24 23 23 24 22 24 27 26 24 23 25 32 32 29 31 31 30 29 27 25 25 27 29 28 28 28 26
30 30 30 29 29 29 28 27 26 26 26 25 25 24 24 26 28 28 27 26 24 23 23 23 24 24 25 26 28 27 27 26 26 26 26 26 27 28 28 27 26 27 28 28 28 29 30 31 30 29 30 28 26 27 27 27 26 25 25 24 23 22 23 25 25 24 26 28 27 26 25 28 34 33 31 32 32 30 28 27 29 32 33 32 29 28 27 27
32 31 31 30 30 29 28 27 27 26 26 25 24 24 25 29 29 27 27 28 28 27 27 26 27 28 28 29 30 29 28 28 27 27 28 28 29 30 31 30 28 28 29 30 30 30 30 32 31 29 29 28 27 28 27 26 27 28 27 25 25 25 25 26 26 26 28 28 27 27 27 29 31 31 30 31 31 31 31 33 34 34 31 28 27 27 27 27
33 33 32 31 31 30 29 29 28 28 27 26 25 26 29 31 30 29 30 30 30 30 29 28 27 29 31 31 32 31 30 30 29 28 29 30 31 32 31 31 30 29 30 30 31 29 30 34 34 31 30 28 29 29 27 26 28 29 27 26 29 29 28 29 30 30 30 30 30 30 31 34 35 37 38 36 36 36 35 34 32 29 26 25 27 27 27 28
33 33 33 32 32 32 31 31 31 30 29 28 28 30 33 33 30 30 31 30 29 29 30 30 29 30 33 32 32 31 30 31 30 30 32 32 33 33 33 32 31 30 31 31 31 31 32 35 34 32 32 31 31 31 29 29 30 30 28 30 31 30 29 31 32 32 30 32 34 34 36 38 38 41 40 35 34 33 31 31 29 28 28 28 29 29 29 29
33 34 34 34 34 33 33 32 32 32 31 30 33 35 35 34 34 33 32 31 31 31 31 32 31 31 32 32 32 31 30 31 31 31 32 32 33 33 32 33 31 32 32 32 33 33 34 36 36 34 35 35 33 33 32 32 32 30 30 32 31 30 31 31 31 30 30 33 34 34 39 40 37 39 39 35 35 34 32 33 32 31 31 30 29 28 28 28
34 35 35 36 35 34 34 33 33 33 32 32 36 38 36 35 35 35 34 34 34 33 33 34 34 32 32 33 33 33 31 32 31 31 32 33 33 32 32 33 32 32 33 32 33 34 34 36 37 35 36 35 33 33 34 34 33 32 33 34 32 32 32 31 30 30 31 33 33 34 38 39 38 40 41 41 41 37 34 34 32 32 32 31 30 30 29 29
36 36 36 36 36 35 34 34 33 33 33 34 37 38 36 36 36 35 35 35 35 35 35 36 35 34 34 34 35 34 34 34 33 33 33 33 34 32 31 32 31 31 32 31 32 34 33 33 35 35 35 35 33 33 35 34 33 33 34 35 34 34 33 32 32 31 32 34 35 35 36 36 38 39 40 41 40 36 34 34 33 33 33 33 33 32 32 32
37 36 37 36 35 35 34 33 34 34 35 36 38 37 36 36 36 36 36 36 36 35 36 36 35 35 36 35 35 36 35 35 35 35 35 34 35 34 32 32 32 31 32 31 32 33 32 33 35 34 35 36 35 35 35 35 34 34 35 36 36 35 35 34 34 34 34 35 35 35 36 36 37 37 38 39 37 34 34 34 35 35 34 34 35 34 35 35
37 36 37 36 35 34 33 34 35 36 37 38 39 38 37 36 36 36 37 37 37 37 36 35 35 36 36 36 36 36 35 36 36 36 36 36 36 36 34 32 32 32 32 32 33 34 33 34 36 36 36 38 38 38 37 36 35 34 35 35 35 36 35 35 35 36 36 36 35 35 36 36 36 37 38 37 34 34 34 34 36 37 36 36 36 36 37 38
36 36 36 35 35 34 33 35 36 36 38 38 38 37 37 36 37 37 37 37 38 37 36 36 36 36 36 36 36 36 35 37 37 36 37 37 37 37 36 35 34 34 34 35 36 36 35 36 38 40 40 41 42 40 37 36 35 35 36 36 35 36 35 35 35 35 35 36 36 37 37 37 37 37 36 34 34 35 35 34 35 36 37 37 37 38 38 39
35 35 35 35 35 35 35 36 37 37 38 38 37 37 37 37 37 37 37 37 37 37 36 36 36 36 37 37 36 36 36 37 38 38 38 38 38 38 37 37 36 35 36 37 38 37 36 36 39 40 40 41 41 40 38 38 38 38 39 38 37 38 38 39 39 38 37 37 38 38 38 37 36 34 31 30 31 32 33 33 34 36 38 38 39 39 40 40
34 34 34 34 35 36 36 36 37 37 37 37 37 38 38 38 38 38 38 38 37 36 36 37 37 37 37 36 36 37 37 37 38 38 37 37 38 36 35 36 36 35 36 36 36 35 34 34 35 35 35 36 38 38 38 38 38 38 38 37 37 38 39 39 39 38 37 37 38 38 37 36 34 33 31 30 30 31 33 34 35 36 38 39 40 40 40 41
32 33 34 34 34 35 36 35 35 36 36 36 37 38 38 38 37 38 38 38 38 37 37 38 37 36 36 36 36 37 37 37 38 38 36 37 37 35 35 35 35 34 34 34 34 35 35 36 37 36 36 37 38 38 37 37 36 36 36 36 35 36 37 37 37 37 37 38 39 38 38 38 37 37 37 35 34 35 35 35 35 36 38 39 40 40 41 41
31 32 33 33 34 35 35 34 34 35 35 35 36 36 37 38 37 36 36 38 38 37 38 38 37 36 37 37 38 39 39 38 38 38 38 39 39 38 37 36 35 35 35 35 35 36 37 39 40 41 41 41 41 41 39 39 39 39 39 39 39 39 38 38 38 39 40 41 41 41 43 44 43 43 42 39 38 39 39 38 39 39 39 40 41 41 42 43
31 32 31 31 32 33 34 34 34 34 34 35 35 36 37 37 37 36 36 36 37 36 37 38 37 37 37 38 38 39 40 39 39 40 41 41 40 39 39 38 37 38 38 38 38 37 38 40 41 43 44 43 43 44 43 43 44 44 44 44 45 44 43 43 45 46 45 43 43 44 46 47 46 45 43 41 41 41 41 41 42 42 42 43 43 44 44 45
31 32 31 31 32 32 33 34 33 34 35 35 35 36 36 36 36 36 35 35 35 35 36 37 37 37 38 38 38 38 38 38 38 37 38 38 38 38 38 37 37 37 37 38 38 37 38 41 43 43 44 44 44 45 44 43 44 44 44 45 45 45 46 47 49 48 46 45 46 47 48 48 48 45 42 42 43 42 42 42 42 43 43 43 44 44 45 45
32 32 32 32 33 33 33 33 33 33 35 35 35 36 37 37 38 37 35 35 37 36 36 37 38 37 37 37 37 37 37 37 38 38 37 37 38 38 38 39 38 37 37 38 39 38 38 41 42 41 42 43 43 43 43 42 44 45 45 44 45 47 48 49 49 48 48 49 49 49 49 49 46 42 40 41 42 42 42 42 42 43 43 43 44 44 45 46
33 33 33 33 33 33 33 33 33 33 34 35 36 37 37 38 39 37 35 36 38 37 36 38 40 38 37 37 38 38 38 37 39 40 38 38 39 39 39 40 39 39 38 38 38 38 38 40 40 39 41 43 43 44 43 42 44 45 45 46 47 49 49 49 49 48 48 49 48 47 48 46 42 40 40 40 40 41 41 42 43 44 44 44 44 45 46 46
33 33 33 33 33 33 33 33 33 33 34 35 35 36 36 37 37 36 35 35 36 36 36 37 39 38 37 38 38 39 38 37 37 38 38 38 39 39 38 39 38 39 39 38 37 38 38 39 39 40 41 43 44 44 43 43 44 45 46 49 50 50 48 47 46 45 45 45 46 45 45 42 40 40 40 39 40 41 41 42 43 44 44 44 45 45 46 47
33 33 33 32 33 33 33 33 33 33 34 34 34 35 34 34 34 35 35 35 34 34 34 35 36 37 37 37 37 37 37 37 37 38 38 38 38 38 38 39 39 39 38 38 38 38 38 40 41 40 41 43 44 43 40 40 43 45 47 48 48 47 46 46 45 44 42 42 43 44 42 41 39 39 39 40 40 40 40 42 43 44 45 45 46 47 47 48
Wind_Direction
273 274 275 277 278 278 279 280 281 282 284 284 285 285 285 286 286 287 288 289 290 291 293 294 295 297 298 299 299 298 299 297 296 295 289 290 291 288 287 285 279 274 275 279 282 281 285 287 285 286 285 286 289 288 289 290 289 291 294 293 291 289 289 288 286 286 290 294 294 294 295 296 296 298 298 298 295 293 293 290 289 289 287 285 287 290 290 289
273 274 275 276 277 278 279 279 280 281 282 282 283 283 284 285 285 286 287 288 288 289 291 292 293 295 296 297 296 296 297 294 293 288 283 290 291 288 287 283 278 275 276 278 279 280 283 284 283 285 285 285 287 287 288 287 287 290 292 291 288 285 287 286 284 286 289 291 291 293 294 294 292 295 298 296 293 295 295 291 289 287 286 287 287 286 287 287
274 275 276 276 277 278 278 278 279 280 280 281 281 282 282 283 284 284 285 286 287 288 289 290 291 292 294 295 295 295 294 293 290 281 280 292 290 285 286 282 279 277 277 277 277 278 280 280 280 283 285 284 286 287 287 287 286 288 289 290 286 284 287 286 283 284 285 289 292 293 293 292 291 293 294 293 293 294 290 288 287 283 285 290 289 286 285 285
273 274 275 276 277 277 278 278 278 279 279 280 280 281 281 282 282 283 284 284 285 286 287 288 289 290 291 292 292 292 293 292 286 275 277 291 289 284 284 281 280 280 279 278 277 278 280 280 281 283 283 284 287 287 285 284 285 286 285 285 285 286 289 286 282 284 286 289 290 291 294 292 291 291 290 292 295 291 284 284 283 281 283 288 291 287 283 282
273 274 275 275 276 276 277 277 277 278 278 279 279 280 280 281 281 282 283 283 284 284 285 286 287 288 288 289 288 289 293 291 281 273 279 287 287 282 281 279 279 281 280 279 279 279 280 281 283 284 284 284 286 287 284 281 283 285 283 282 284 286 288 286 285 287 288 289 289 290 292 292 292 291 288 287 288 285 284 284 283 282 284 285 288 286 281 280
273 274 274 275 275 276 276 277 277 278 278 279 279 279 279 280 280 281 282 282 283 283 284 284 285 286 286 286 285 285 286 282 278 277 280 284 282 280 278 277 278 280 280 280 281 280 281 282 282 282 284 286 283 282 283 282 282 286 286 285 284 283 285 287 288 288 288 289 288 289 290 292 294 292 288 279 275 280 285 285 284 285 284 283 285 283 280 279
273 273 274 274 275 276 276 277 277 278 279 279 279 279 279 280 280 281 281 281 282 282 283 284 284 285 285 284 282 284 280 277 279 280 280 280 279 278 277 278 279 280 280 280 280 280 281 281 279 280 284 287 283 281 283 284 283 286 289 288 286 284 283 285 288 288 287 287 286 289 291 291 290 292 292 281 273 279 285 287 286 286 285 283 283 281 279 278
272 273 274 274 275 276 276 277 278 278 279 279 279 280 280 280 280 280 281 281 281 282 282 283 283 284 284 282 281 283 278 277 281 280 278 278 278 277 278 280 280 280 280 278 279 280 280 279 277 279 284 284 282 282 284 286 286 284 285 287 288 287 285 287 289 288 288 287 287 289 288 286 285 289 292 284 279 282 286 288 287 287 287 284 282 281 279 278
272 273 274 274 275 276 277 277 278 278 279 279 279 280 280 280 280 280 280 280 281 281 281 282 282 282 282 280 281 282 278 278 281 278 277 277 278 278 279 280 279 280 280 279 279 278 279 279 277 278 281 282 282 283 283 284 285 282 282 286 288 288 287 289 288 287 288 287 287 287 285 284 286 289 288 284 283 285 287 288 288 288 288 285 283 282 280 279
273 273 274 274 275 276 277 278 278 279 279 279 279 280 280 279 279 279 279 279 279 279 280 280 281 281 279 279 279 279 279 280 280 277 276 277 278 278 279 280 278 278 279 279 278 276 278 278 279 280 281 283 283 283 283 282 285 284 285 287 286 287 288 287 287 286 287 287 284 283 284 284 288 290 288 286 286 288 288 288 289 288 287 286 285 283 283 281
273 273 274 275 275 276 277 278 279 279 279 279 280 280 279 279 279 279 279 278 278 278 279 279 280 279 277 277 274 275 280 281 279 277 277 277 278 277 278 278 277 277 277 279 277 276 278 277 279 282 282 283 283 284 282 281 285 287 288 288 287 288 289 285 285 285 285 288 285 281 285 287 288 286 283 285 288 288 288 288 288 287 287 287 286 284 283 281
272 273 274 275 276 276 277 278 279 279 280 280 280 280 280 280 279 279 278 278 278 277 277 278 278 277 277 276 273 274 279 279 277 277 277 277 278 277 277 277 276 276 276 278 277 276 278 277 277 279 281 282 285 286 283 283 286 287 289 288 288 291 290 284 283 285 284 288 289 285 287 287 284 280 280 285 288 288 288 288 288 288 287 287 286 285 283 281
272 273 274 275 276 276 277 279 279 280 280 281 281 281 280 280 279 279 278 277 277 276 276 276 276 276 277 276 276 277 278 276 275 277 277 277 278 278 278 277 276 276 276 276 277 276 275 276 276 278 280 282 284 285 286 288 286 286 287 286 288 290 288 285 284 288 288 287 287 286 287 285 283 279 281 286 289 289 288 287 288 288 288 288 286 285 284 282
272 273 274 275 276 277 278 279 280 280 281 282 282 282 281 281 280 279 278 277 276 275 275 275 275 275 275 275 278 279 277 276 276 276 276 276 276 278 278 277 277 277 277 277 278 278 275 276 278 279 281 281 284 286 289 290 286 286 286 285 287 286 286 288 287 289 291 288 285 285 285 284 285 283 284 288 288 288 288 287 288 288 289 288 287 286 285 284
272 273 274 275 276 277 278 280 281 281 282 283 283 283 283 282 281 280 279 277 276 275 274 274 274 275 276 277 278 279 278 277 277 276 276 275 275 276 276 276 276 277 277 276 277 277 276 277 278 280 282 282 284 287 290 289 287 287 286 285 286 284 286 291 288 283 286 288 285 283 284 285 286 285 286 289 290 289 287 287 289 288 288 288 288 286 285 285
272 273 274 275 276 277 279 280 282 282 283 284 284 284 283 281 281 281 279 277 276 274 274 274 274 274 277 279 279 278 278 277 277 277 276 275 274 274 275 274 276 276 276 276 276 277 277 278 278 279 282 283 284 287 289 287 286 287 284 283 284 285 289 293 289 283 283 287 285 281 283 286 287 287 288 288 289 289 289 288 288 288 288 288 288 287 286 286
271 272 274 275 276 277 279 280 282 283 283 284 284 283 281 280 280 280 279 277 275 275 274 274 274 275 276 278 279 278 278 277 276 277 276 276 274 272 274 275 276 275 276 277 277 278 278 278 279 279 282 285 286 287 286 283 284 286 285 284 285 286 288 291 290 290 288 284 283 284 282 283 286 288 289 287 287 288 287 287 288 288 288 287 287 287 287 287
271 272 274 275 277 278 279 281 282 283 283 284 284 282 279 278 278 278 277 276 275 275 275 274 274 276 277 277 277 277 277 276 275 276 276 276 274 272 273 274 274 274 276 278 277 277 277 278 279 280 283 285 285 282 279 279 282 285 285 285 287 287 286 287 289 293 293 284 282 285 284 283 286 287 287 286 286 285 284 286 288 287 287 286 286 286 287 286
271 272 274 275 277 278 280 281 282 283 284 285 284 280 278 278 277 276 276 275 274 274 274 272 271 274 276 277 277 277 277 275 276 276 275 275 273 273 274 274 273 272 274 277 277 275 276 279 279 279 281 281 280 276 274 278 283 284 284 284 285 286 285 285 288 291 292 288 284 284 284 285 287 287 286 286 286 285 284 285 286 287 287 286 286 285 285 285
270 272 273 275 277 278 279 281 282 284 285 285 283 281 278 279 278 276 276 275 273 273 274 272 270 272 275 277 277 277 276 275 276 276 274 273 272 272 273 274 274 274 274 275 275 276 276 276 275 276 279 278 276 275 276 283 287 285 284 284 284 286 286 287 289 288 290 289 286 284 285 286 287 287 287 287 286 285 285 285 286 286 286 286 286 285 284 285
270 271 273 274 276 277 278 280 282 284 284 284 283 281 277 277 277 276 277 277 274 274 274 273 272 272 274 276 275 275 276 276 277 276 274 272 271 271 272 273 273 275 276 274 275 278 276 273 273 275 278 279 279 279 280 283 285 283 283 285 285 285 287 289 289 289 290 288 287 288 287 286 288 288 287 285 285 285 286 287 287 285 286 287 285 285 285 286
270 271 272 273 274 276 277 279 281 282 283 282 282 279 277 277 277 277 278 276 276 275 274 275 274 274 274 275 273 273 275 276 277 276 273 271 271 270 271 272 272 273 275 274 276 278 275 273 274 275 278 282 283 283 280 279 280 281 283 285 285 286 289 289 289 291 292 288 289 291 289 288 289 287 285 283 284 287 288 286 285 284 285 285 285 287 287 286
269 270 270 272 273 275 276 279 280 280 280 280 279 278 277 278 278 279 278 276 276 276 274 274 274 273 275 274 273 272 272 274 276 275 271 270 270 269 269 270 271 272 273 272 272 273 273 275 275 275 276 279 280 281 281 281 281 280 282 284 284 288 290 288 289 294 292 288 290 292 291 290 289 287 285 283 285 288 287 286 285 284 284 284 285 286 283 282
268 269 270 271 272 273 276 279 280 279 278 278 278 277 277 278 278 279 279 277 276 277 274 273 273 274 274 274 273 271 272 273 275 274 271 267 268 269 269 269 271 272 272 270 269 271 274 276 277 278 276 275 277 279 279 280 281 279 279 280 283 286 285 284 290 294 292 289 290 294 294 291 288 286 286 289 293 291 288 287 286 287 288 287 286 280 277 280
268 269 269 270 271 272 275 277 277 277 278 277 277 278 278 278 279 280 281 279 279 279 278 275 275 274 273 274 274 271 272 273 273 273 271 267 266 270 271 270 271 272 271 270 272 274 275 276 277 279 279 277 275 277 277 276 279 281 278 276 279 282 283 284 289 294 292 290 291 296 296 291 286 285 288 294 298 296 292 287 286 293 295 288 282 277 279 284
268 268 269 269 270 272 274 275 275 276 277 277 277 278 278 279 280 281 282 282 281 281 279 276 274 273 273 275 274 271 273 275 274 272 271 268 267 270 272 272 274 274 271 271 273 274 275 278 278 276 278 277 274 276 277 275 278 281 280 278 277 280 282 283 286 288 286 286 289 292 291 287 287 287 289 293 295 294 293 289 291 296 289 281 280 278 284 289
267 268 268 269 270 271 272 273 274 275 276 276 277 277 278 279 280 281 283 283 281 279 278 276 274 274 274 274 273 271 274 276 277 274 271 270 270 271 272 273 274 274 272 272 274 274 274 278 280 278 277 275 274 277 277 274 276 279 281 281 278 279 280 280 282 282 282 286 289 288 285 286 287 287 290 291 289 290 291 292 297 294 281 278 279 280 289 295
268 268 268 268 268 269 271 272 273 274 274 275 276 275 277 279 279 281 282 279 278 277 276 275 275 276 277 275 274 275 276 277 277 276 273 271 272 273 274 272 271 271 271 271 273 275 275 274 274 274 275 274 274 276 274 271 275 279 281 281 279 279 279 279 279 280 283 288 287 284 284 286 285 287 293 293 289 287 285 288 297 296 288 284 282 285 293 295
268 268 268 266 266 267 270 271 271 271 272 272 273 274 276 277 278 279 276 272 275 277 276 276 276 278 280 278 278 278 279 279 276 275 274 271 271 274 274 273 271 272 274 273 273 276 277 275 271 270 273 274 274 275 272 270 275 278 279 282 283 283 282 281 280 280 284 284 280 279 282 285 285 287 289 290 290 286 281 286 293 295 292 287 286 290 291 289
268 269 267 265 266 268 269 269 268 268 269 270 272 274 275 276 276 275 269 269 274 277 277 277 277 278 279 279 280 280 278 278 277 275 275 273 272 275 275 274 274 275 276 278 277 276 276 277 275 273 274 275 276 278 277 274 276 278 280 283 284 284 283 282 279 280 281 280 277 275 276 279 284 286 283 283 284 279 283 293 295 293 288 286 289 293 292 290
269 269 267 264 265 267 267 268 268 266 267 269 272 275 275 276 274 268 266 271 276 277 277 278 279 280 279 278 279 279 278 278 277 276 276 275 274 275 276 275 276 278 280 280 279 277 275 275 275 275 276 277 279 281 281 280 279 279 280 281 282 282 283 282 281 279 276 278 280 278 276 272 272 277 281 284 283 279 286 295 295 290 285 287 293 296 294 293
269 269 267 265 265 265 265 266 267 265 267 269 272 274 274 274 270 264 267 276 278 276 276 277 279 279 279 280 279 278 279 279 278 277 276 275 274 273 273 273 274 279 280 277 278 279 276 272 275 278 276 275 277 280 281 282 279 277 276 276 278 281 282 280 278 276 273 275 280 279 277 271 268 272 278 281 284 283 285 288 287 286 287 291 296 294 292 292
266 267 266 265 264 264 263 264 265 266 267 267 268 271 271 269 267 266 268 272 272 274 276 277 279 278 278 280 280 279 280 278 276 276 276 276 276 275 274 273 273 277 277 277 279 280 278 277 276 277 277 274 273 275 277 278 275 273 273 271 271 274 277 276 275 277 277 277 278 276 273 273 274 276 277 277 282 285 285 284 285 287 290 293 293 291 290 291
265 265 264 263 263 263 262 261 261 263 265 264 264 267 265 264 266 269 270 270 272 275 276 276 279 279 277 277 277 277 278 277 275 275 276 276 276 276 276 274 273 275 277 277 278 277 277 279 275 274 276 273 270 271 274 276 274 272 273 271 268 269 272 274 275 275 277 277 277 274 271 271 274 278 279 279 283 286 286 286 288 290 290 288 288 289 290 289
264 264 264 264 264 263 261 259 259 260 262 263 264 263 261 262 267 270 271 273 275 276 276 276 277 278 277 276 277 277 276 276 276 275 274 273 273 273 274 274 272 273 275 275 276 276 274 276 276 277 278 272 271 274 275 276 274 272 273 270 269 271 271 274 274 272 275 277 274 270 269 270 273 277 279 279 282 286 286 287 290 291 287 286 288 289 288 287
263 263 263 264 264 262 260 258 259 260 261 262 264 261 260 264 267 269 271 274 275 275 277 277 275 275 276 276 277 278 276 274 276 276 274 273 274 273 273 275 272 270 272 274 276 277 275 276 277 280 279 274 274 277 276 274 272 272 271 269 272 274 272 274 275 275 275 274 272 269 271 274 277 278 278 278 281 283 284 287 288 287 285 286 287 286 286 286
262 262 263 264 263 261 258 257 257 259 260 262 263 262 263 266 266 268 271 274 274 275 276 276 274 273 274 275 276 277 276 275 275 274 274 275 275 273 273 276 273 269 270 274 276 276 276 277 276 275 277 277 278 279 279 276 272 271 272 273 276 276 274 273 276 278 275 273 272 270 270 275 276 277 278 280 281 280 281 284 285 284 285 284 282 283 284 284
263 263 264 264 263 260 258 256 256 257 259 261 261 263 266 268 267 268 269 271 273 275 274 273 273 273 273 274 275 275 275 275 275 274 274 274 274 273 274 276 274 272 273 275 276 276 277 277 276 274 275 277 279 278 277 277 274 273 274 275 275 273 273 272 272 275 274 273 275 271 269 271 272 274 278 280 280 281 281 283 284 283 284 282 280 280 281 280
264 265 266 266 264 260 257 256 256 257 259 260 261 263 266 267 268 268 268 269 271 271 271 271 271 272 272 272 273 274 274 274 275 276 275 274 274 274 276 276 276 277 277 274 274 276 277 276 276 276 276 277 278 275 274 275 276 276 275 274 273 271 272 271 270 272 273 274 276 274 271 271 271 274 278 280 281 282 281 283 283 281 281 281 280 280 281 282
264 265 266 266 264 258 254 255 256 258 260 262 263 265 268 269 270 270 269 269 270 271 271 271 271 271 272 272 273 274 274 273 273 274 274 274 276 276 276 276 277 278 279 276 274 276 277 274 274 277 276 275 274 274 273 273 274 274 273 271 271 271 272 273 272 270 272 274 275 275 273 272 274 277 279 280 283 282 280 281 281 281 282 282 282 282 283 285
263 265 266 266 262 256 252 255 258 260 262 263 265 267 268 270 271 271 270 269 270 271 272 272 271 272 273 274 274 274 274 273 272 272 272 273 274 275 275 276 275 275 277 277 274 274 275 275 274 275 274 272 273 274 274 273 272 272 272 271 271 272 272 275 274 271 271 272 274 275 275 274 275 278 281 282 282 281 280 279 279 281 283 283 284 284 285 286
262 264 265 264 260 254 253 258 261 262 262 263 266 267 268 269 269 269 270 270 270 271 272 272 272 272 272 273 274 273 273 273 272 271 272 273 271 272 275 277 276 274 274 275 273 273 274 275 274 273 273 273 275 275 273 272 272 273 273 274 274 274 272 273 274 274 273 272 273 275 276 276 277 278 280 279 278 279 280 279 278 280 282 283 284 285 286 287
262 263 264 263 259 254 256 261 263 263 263 265 267 268 267 268 269 269 270 270 270 271 271 271 271 271 271 271 272 272 272 272 271 271 272 273 273 274 277 278 276 275 275 275 275 275 274 274 274 274 275 276 276 275 273 273 274 275 274 274 274 274 273 272 273 276 275 273 274 275 276 278 281 280 278 275 275 278 280 279 279 280 281 282 283 284 286 287
262 263 263 262 259 255 258 263 264 263 265 266 267 267 267 267 268 269 270 270 270 270 271 271 271 271 271 272 272 271 271 272 273 273 272 273 274 275 278 279 277 275 275 274 274 275 274 273 274 277 278 278 277 277 276 276 276 275 275 275 274 275 276 276 275 276 275 273 273 274 275 276 279 280 279 277 278 278 279 280 279 280 281 281 282 283 284 285
263 263 263 262 259 258 261 265 265 264 265 266 266 266 266 267 268 268 268 269 269 269 271 272 272 272 273 273 273 272 271 271 273 275 274 274 274 276 279 280 278 275 275 275 275 275 275 274 274 276 277 277 277 277 277 278 277 276 277 278 277 275 275 277 277 275 274 273 272 272 275 277 278 279 279 280 280 279 279 279 279 280 281 281 282 283 283 285
263 264 264 264 262 262 264 266 265 264 265 265 266 266 266 267 269 268 267 268 268 268 270 272 272 273 273 272 273 273 272 270 271 273 274 274 274 276 277 277 276 274 274 276 277 276 276 275 273 273 273 274 276 277 278 278 278 277 278 278 277 276 274 276 276 274 275 277 274 273 276 278 278 278 279 280 280 279 278 278 278 279 280 281 282 282 283 285
263 263 264 264 264 265 265 266 266 266 266 266 266 267 266 267 270 270 268 269 270 269 270 271 270 271 271 272 273 274 273 272 271 272 273 274 274 276 277 276 276 276 275 276 277 276 275 275 274 273 274 274 276 277 278 278 278 278 278 277 277 277 275 274 273 274 277 278 275 275 277 277 278 278 279 279 279 278 278 277 278 278 279 280 281 282 283 284
263 264 263 264 265 265 265 266 267 267 268 268 267 268 269 269 270 271 271 272 272 271 272 272 271 270 270 272 274 274 275 274 273 273 275 276 276 277 278 277 277 278 277 277 278 277 275 275 275 275 275 275 276 278 278 278 278 277 277 277 277 276 275 274 274 275 276 275 275 277 277 276 278 279 278 279 280 279 278 278 278 278 279 279 281 282 283 283
264 264 265 265 265 266 266 268 269 269 269 268 268 269 270 270 270 271 271 273 273 272 271 272 272 272 271 272 273 274 275 275 275 275 275 276 276 276 277 276 276 278 278 278 278 277 275 276 277 276 277 276 276 277 277 277 277 277 276 276 276 275 275 275 276 277 276 274 275 277 276 276 279 278 277 279 280 278 277 277 277 278 278 280 281 282 283 283
265 265 265 266 266 267 267 268 269 269 269 268 268 270 270 270 271 271 271 272 272 272 272 273 274 274 273 273 273 273 274 276 277 277 276 276 276 276 276 275 276 278 279 277 277 277 276 277 278 278 278 277 276 276 277 277 277 278 277 277 276 276 276 276 276 277 276 275 275 276 276 277 279 279 278 278 279 278 277 277 277 277 279 280 282 283 283 283
265 265 265 266 267 266 266 268 268 268 269 268 268 270 271 270 272 273 273 273 273 273 274 275 277 278 276 275 275 275 277 277 276 277 278 277 276 277 276 276 276 277 277 276 275 276 276 277 279 280 278 277 277 278 278 279 279 277 276 276 276 276 276 276 276 276 276 276 276 276 276 277 278 279 280 279 279 279 278 278 278 278 278 280 282 283 284 283
265 266 266 266 267 267 266 267 268 267 268 269 270 271 271 272 274 274 273 273 273 274 275 276 278 278 277 276 276 276 277 277 275 275 276 275 275 276 275 275 275 275 275 275 275 274 274 276 279 279 278 277 278 279 280 280 278 275 274 276 276 276 276 276 276 276 276 277 277 276 277 277 277 279 280 280 280 279 278 279 280 279 279 280 281 282 282 282